Location: Memphis
(29.8667°N, 31.2500°E)
Time: 08:11:55
(UTC+00:00)

IRS-1C Rocket - Pass Details

Date: 03 March 2021
Orbit: 800 x 806 km, 99.0° (Epoch: 15 April)

Event Time Altitude Azimuth Distance (km) Brightness Sun altitude
Rises 16:19:08 0° 156° (SSE) 3,298 7.1 -5.9°
Reaches altitude 10° 16:21:29 10° 153° (SSE) 2,371 6.3 -6.4°
Maximum altitude 16:26:38 60° 74° (ENE) 916 4.1 -7.5°
Drops below altitude 10° 16:31:49 10° 356° (N) 2,387 6.6 -8.7°
Sets 16:34:10 0° 352° (N) 3,321 7.4 -9.2°
